Reflectivity
18 19 4 -2 -1 -20 -20 -20 -20 -20 -20 -20 -20 -20 -20 -20 -20 -20 -20 -20 -20 -20 -20 -20 -20 -20 -20 -20 -20 -20 -20 -20 -20 -20 -20 -20 -20 -20 -20 -20 -20 -20 -20 -20 -20 -20 -20
-20 7 19 8 11 12 -18 -19 2 -20 -20 -20 -20 -20 -20 -20 -20 -20 -20 -20 -20 -20 -20 -20 -20 -20 -20 -20 -20 -20 -20 -20 -20 -20 -20 -20 -20 -20 -20 -20 -20 -20 -20 -20 -20 -20 -20
7 10 -15 9 6 21 -1 8 -20 -20 -20 -20 -20 -20 -20 -20 -20 -20 -20 -20 -20 -20 -20 -20 -20 -20 -20 -20 -20 -20 -20 -20 -20 -20 -20 -20 -20 -20 -20 -20 -20 -20 -20 -20 -20 -20 -20
21 18 0 -9 12 21 22 13 6 -19 -20 -20 -20 -9 -20 -20 -20 -20 -20 -20 -20 -20 -20 -20 -20 -20 -20 -20 -20 -20 -20 -20 -20 -20 -20 -20 -20 -20 -20 -20 -20 -20 -20 -20 -20 -20 -20
-17 29 18 9 3 -4 15 26 -15 -7 -20 -20 -19 -20 -20 -20 -20 -20 -20 -20 -20 -20 -20 -20 -20 -20 -20 -20 -20 -20 -20 -20 -20 -20 -20 -20 -20 -20 -20 -20 -20 -20 -20 -20 -20 -20 -20
-20 -20 -3 15 15 -12 14 24 26 24 -12 -20 11 -19 -20 -20 -20 -20 -20 -20 -20 -20 -20 -20 -20 -20 -20 -20 -20 -20 -20 -20 -20 -20 -20 -20 -20 -20 -20 -20 -20 -20 -20 -20 -20 -20 -20
-20 -20 13 27 15 4 -18 21 24 17 32 7 8 -2 -11 -20 -20 -20 -20 -20 -20 -20 -20 -20 -20 -20 -20 -20 -20 -20 -20 -20 -20 -20 -20 -20 -20 -20 -20 -20 -20 -20 -20 -20 -20 -20 -20
1 -20 -13 17 22 12 22 13 22 10 24 28 13 15 17 12 -20 -20 -20 -20 -20 -20 -20 -20 -20 -20 -20 -20 -20 -20 -20 -20 -20 -20 -20 -20 -20 -20 -20 -20 -20 -20 -20 -20 -20 -20 -20
-12 -20 -20 9 25 20 24 23 -11 8 17 33 32 2 18 2 -20 -20 -20 -20 -20 -20 -20 -20 -20 -20 -20 -20 -20 -20 -20 -20 -20 -20 -20 -20 -20 -20 -20 -20 -20 -20 -20 -20 -20 -20 -20
-20 -20 -16 -18 19 26 20 24 -10 13 7 11 33 31 16 -4 -15 -20 -20 -20 -20 -20 -20 -20 -20 -20 -20 -20 -20 -20 -20 -20 -20 -20 -20 -20 -20 -20 -20 -20 -20 -20 -20 -20 -20 -20 -20
4 15 4 11 25 24 18 20 4 18 -14 27 27 19 24 -5 -13 -20 -20 -20 -20 -20 -20 -20 -20 -20 -20 -20 -20 -20 -20 -20 -20 -20 -20 -20 -20 -20 -20 -20 -20 -20 -20 -20 -20 -20 -19
-19 12 15 15 21 21 15 11 -14 12 -1 20 15 29 15 15 6 8 -20 -20 -20 -20 -20 -20 -20 -20 -20 -20 -20 -20 -20 -20 -20 -20 -20 -20 -20 -20 -20 -20 -20 -20 -20 -20 -20 -20 -19
13 -4 20 20 20 25 24 4 22 24 -10 9 7 16 16 28 16 -19 -20 -20 -20 -20 -20 -20 -20 -20 -20 -20 -20 -20 -20 -20 -20 -20 -20 -20 -20 -20 -20 -20 -20 -20 -20 -20 -20 -20 -20
11 24 24 23 21 24 20 15 21 26 18 0 6 20 19 20 14 -20 -20 -20 -20 -20 -20 -20 -20 -20 -20 -20 -20 -20 -20 -20 -20 -20 -20 -20 -20 -20 -20 -20 -20 -20 -20 -20 -6 9 12
22 28 23 24 20 22 19 25 35 24 33 13 5 -12 4 -13 -20 -20 -20 -20 -20 -20 -20 -20 -20 -20 -20 -20 -20 -20 -20 -20 -20 4 12 -9 -20 -20 -20 -19 -20 -20 -20 -20 -20 -20 -17
43 39 36 34 32 22 28 29 33 25 27 22 8 -2 -16 -20 -20 -20 -20 -20 -20 -20 -20 -20 -20 -20 -20 -20 -20 -20 -20 -20 -20 2 21 5 -1 -20 -18 -20 -20 -20 -20 -0 -20 7 3
38 39 41 39 36 39 36 37 34 32 28 14 4 -13 -15 -18 -10 -10 -19 -20 -18 -20 -20 -20 -20 -20 -20 -20 -20 -20 -20 -20 -20 -20 -20 4 24 -20 -20 -20 -20 -20 -20 -20 -10 16 14
31 37 39 41 36 38 40 40 33 26 20 1 -1 -8 -2 -7 -16 -1 -10 -20 -20 -20 -20 -20 -20 -20 -20 -20 -20 -20 -20 -20 -20 -20 -20 -20 17 10 -20 -4 -20 5 -20 -20 -19 -20 6
28 34 38 35 37 36 38 36 27 17 12 4 12 11 -10 -20 -17 1 5 -15 -20 -20 -20 -20 -20 -20 -20 -20 -20 -20 -20 -20 -20 -20 -12 13 25 -9 -20 -2 -10 -20 -20 -20 -20 -20 -7
26 30 36 35 32 32 31 25 13 9 -3 -4 -1 -3 -11 -20 -6 -1 -14 -20 -20 -20 -20 -20 -20 -20 -20 -20 -20 -20 -20 -20 -20 -20 -20 30 15 -10 12 11 10 -8 -16 -10 -17 -20 6
27 29 32 28 20 11 11 6 5 -17 -20 -20 -20 -11 -4 -20 -4 2 -19 -20 -20 -20 -20 -20 -20 -20 -20 -20 -20 -20 -20 -20 -20 -20 -20 1 7 20 -19 8 14 23 26 1 -8 -0 3
27 28 11 8 11 10 3 0 -15 -20 -20 -20 -20 -12 -7 -14 -9 -18 -20 -20 -20 -20 -20 -20 -20 -20 -20 -20 -20 -20 -20 -20 -20 -20 -20 16 1 6 -20 13 19 18 13 17 10 16 10
23 16 6 6 4 8 10 8 -19 -20 -20 -20 -20 -20 -20 -20 -20 -20 -20 -20 -20 -20 -20 -20 -20 -20 -20 -20 -20 -20 -20 -20 -20 -20 -20 -17 -15 -20 0 13 10 7 24 21 9 -8 -8
26 -10 -3 -7 -4 13 1 -12 -20 -20 -20 -20 -18 -20 -20 -20 -20 -20 -20 -20 -20 -20 -20 -20 -20 -20 -20 -20 -20 -20 -20 -20 -20 -20 -20 -18 16 -20 4 11 14 -5 18 18 16 -4 -7
23 -14 -1 -0 -8 9 -20 -20 -20 -20 -20 -20 -20 -20 -20 -20 -20 -20 -20 -20 -20 -20 -20 -20 -20 -20 -20 -20 -20 -20 -20 -20 -20 -20 -20 -20 9 10 -20 -16 -3 2 -15 -3 6 -2 -4
21 0 -7 3 3 4 -17 -20 -20 -20 -20 -9 -20 -20 -19 -20 -20 -20 -20 -20 -20 -20 -20 -20 -20 -20 -20 -20 -20 -20 -20 -20 -19 -20 -20 -20 24 27 -20 -20 -20 -20 -2 -16 -10 -7 -20
17 -4 12 -5 15 -8 -20 -20 -20 -20 -18 -20 -20 -20 -12 -20 -20 -20 -20 -20 -20 -20 -20 -20 -20 -20 -20 -20 -20 -20 -20 -20 -20 -20 -15 -20 7 12 -20 -20 -20 -20 -20 -20 -4 -13 -20
14 13 16 -6 2 -20 -20 -20 -20 -20 -20 -20 -20 -19 -20 -20 -20 -20 -20 -20 -20 -20 -20 -20 -20 -20 -20 -20 -20 -20 -20 -20 -20 -20 -14 -20 -7 -3 7 -20 -20 -20 -18 -20 -4 -20 -17
13 15 19 -16 -3 -20 -20 -20 -20 -20 -20 -20 -20 -20 -20 -20 -20 -20 -20 -20 -20 -20 -20 -20 -20 -20 -20 -20 -20 -20 -20 -20 -20 -20 -20 -20 -20 -16 -3 -19 -20 -16 -18 -19 -20 -20 -20
Wind_Speed
26 26 26 24 23 22 21 19 18 16 14 12 10 7 6 6 8 9 11 11 11 11 12 13 12 12 6 4 2 4 13 11 4 4 3 2 2 0 3 3 6 5 4 8 7 10 10
28 27 26 26 25 24 23 21 18 16 15 14 10 7 6 7 9 10 12 12 12 11 10 10 9 6 2 3 1 4 8 5 2 2 1 1 2 2 3 4 3 5 11 11 6 9 7
27 29 29 27 26 26 24 23 21 18 16 14 10 7 4 7 9 11 13 14 14 13 11 7 4 1 2 4 2 7 5 2 2 3 2 3 3 2 1 6 4 5 15 17 8 3 5
33 31 29 29 29 26 25 25 22 20 18 14 12 9 4 6 9 11 13 15 16 16 10 7 6 2 5 4 4 7 2 4 3 4 3 6 3 4 3 4 6 6 5 9 2 11 7
29 30 31 33 31 29 27 26 23 21 19 16 13 9 5 5 9 12 13 14 14 4 8 12 4 3 5 10 3 4 2 3 4 1 5 2 5 4 1 2 5 0 12 9 22 0 12
31 31 37 35 32 30 29 27 22 21 18 16 12 8 5 4 7 11 13 10 2 11 6 2 4 2 3 2 3 5 3 2 2 5 5 3 5 2 1 3 12 4 7 6 15 4 15
34 33 33 32 35 34 31 28 25 19 15 14 11 7 5 2 7 10 5 5 4 3 1 3 1 3 5 7 3 3 3 1 2 3 1 3 1 8 11 10 13 8 13 16 17 20 23
37 37 36 36 36 35 33 30 27 23 19 14 11 7 4 0 7 10 3 6 3 3 2 2 3 5 4 1 4 5 3 2 1 5 2 3 11 13 8 7 9 12 12 17 19 20 18
41 41 39 40 36 36 34 32 29 26 20 15 9 8 4 2 7 3 4 3 1 5 4 4 4 4 3 6 4 4 3 3 2 4 4 8 8 4 7 9 8 14 11 14 14 19 16
45 46 42 40 40 38 36 33 31 27 22 17 14 9 6 2 6 2 2 1 2 3 6 2 3 2 2 4 2 3 3 3 1 5 4 8 6 7 6 6 7 12 6 14 15 11 9
35 41 42 40 40 39 37 34 31 28 24 16 12 8 5 3 6 5 5 3 5 4 1 1 3 1 4 3 5 3 1 3 6 5 2 9 4 5 11 18 7 11 8 13 14 11 12
25 33 41 41 41 40 40 36 35 29 26 19 13 10 7 4 1 3 3 4 4 5 5 3 2 4 5 3 2 6 4 3 2 4 5 11 3 3 8 11 8 7 8 12 9 5 8
23 33 39 42 42 41 40 37 34 29 27 23 16 12 4 3 5 3 4 4 3 5 0 3 2 3 1 4 5 4 4 4 2 6 5 8 4 4 5 4 3 4 4 4 5 2 7
24 33 40 42 42 40 39 37 34 28 22 22 17 12 6 3 4 5 4 4 3 3 2 3 3 2 3 6 4 5 5 5 4 1 3 4 8 2 4 6 3 5 7 4 5 4 9
28 37 42 44 42 39 37 35 34 29 22 20 17 3 3 3 5 3 5 4 4 4 4 3 4 4 5 4 1 5 4 0 2 4 2 4 7 2 3 3 5 3 5 12 7 7 7
37 30 35 34 35 39 35 31 30 27 21 18 5 5 2 5 7 3 5 4 3 4 5 3 4 1 1 3 4 5 3 2 3 2 6 4 8 3 1 3 8 13 3 1 1 4 4
31 30 32 32 30 31 33 28 26 23 20 14 4 5 1 3 3 4 4 3 5 4 4 4 3 3 4 3 2 2 4 6 2 7 8 7 5 5 2 6 4 2 3 4 5 5 1
25 29 30 27 27 28 25 27 24 21 18 8 4 5 2 3 4 1 4 5 5 4 4 4 4 3 5 3 1 2 3 2 6 7 11 4 4 4 12 5 5 5 5 6 4 5 3
23 24 23 25 26 26 24 21 20 19 15 4 4 4 1 3 4 1 2 4 3 4 3 4 3 3 2 4 2 4 3 7 7 6 3 5 4 6 7 3 2 3 2 1 2 2 3
20 23 23 24 24 23 20 18 17 15 11 2 5 5 3 3 1 6 5 4 4 3 3 4 3 5 3 2 2 2 3 6 5 3 11 0 2 7 5 7 9 7 6 3 3 4 4
19 20 22 21 19 19 17 15 12 10 8 3 3 2 3 4 1 6 4 3 5 4 3 2 3 3 4 0 3 3 4 6 4 3 5 1 2 2 5 17 14 17 11 10 13 8 5
19 18 18 18 17 17 15 12 9 9 6 3 5 5 3 3 6 8 2 2 5 3 4 0 4 2 5 5 7 5 3 2 4 7 4 1 3 3 3 3 13 20 22 17 16 13 12
18 17 17 17 16 15 12 10 7 6 2 3 1 2 5 2 4 5 4 5 5 6 2 3 3 1 2 7 7 10 9 6 7 4 4 2 4 3 3 11 5 10 16 15 15 16 5
20 19 18 16 16 14 11 8 6 3 2 3 2 3 5 2 4 4 5 3 5 3 5 2 2 1 3 6 9 2 3 6 8 10 8 4 3 2 3 3 6 1 7 9 18 13 10
19 18 18 17 16 13 10 7 3 2 4 4 2 3 4 4 3 5 7 6 4 4 2 2 1 1 5 5 4 3 3 3 2 3 4 3 3 0 2 4 4 3 6 6 6 8 11
17 17 18 16 15 13 11 7 4 3 9 4 2 1 5 7 0 4 5 3 3 1 2 2 3 4 6 2 3 2 1 0 3 8 3 4 10 1 1 2 2 3 9 6 8 4 8
16 16 17 16 15 13 11 6 5 4 4 4 3 3 5 6 0 3 3 4 4 3 1 2 5 6 3 3 3 2 1 2 3 5 6 5 4 6 4 3 4 8 11 4 3 1 8
18 16 17 16 15 13 10 6 4 6 3 4 1 4 4 4 1 3 3 5 3 2 3 3 4 4 4 4 2 1 1 1 2 2 3 3 4 3 3 3 1 12 2 3 5 5 8
19 17 17 17 15 12 10 6 6 6 5 3 4 3 3 6 4 1 1 1 3 6 5 1 4 1 3 3 1 2 1 2 1 1 3 3 2 2 4 3 3 6 9 7 5 4 3
Wind_Direction
221 221 217 211 213 207 214 211 211 204 213 213 217 245 253 278 299 314 317 321 325 329 325 327 330 339 4 4 258 297 339 333 343 20 46 47 41 320 244 265 328 255 275 320 331 319 303
219 218 219 211 210 209 207 211 213 203 207 209 211 220 268 294 302 312 311 316 319 315 315 314 319 335 21 12 217 329 346 353 43 60 24 157 189 172 255 270 254 311 309 302 302 301 258
224 220 214 213 208 208 205 207 201 202 207 211 206 211 238 290 302 311 310 314 311 304 294 276 282 282 72 217 298 336 331 296 298 135 331 229 191 151 151 312 272 275 301 302 263 243 287
256 222 215 213 208 208 206 202 196 197 199 205 207 198 226 275 296 305 308 312 311 305 273 222 180 129 256 257 280 305 199 315 266 258 207 242 166 169 180 274 329 306 296 312 139 344 292
265 246 224 215 207 199 202 200 194 192 197 196 205 187 195 269 302 301 305 315 315 48 118 140 90 92 283 320 340 329 197 282 314 299 279 264 125 163 83 254 313 182 272 267 302 336 295
261 258 235 212 203 202 198 194 192 185 190 187 196 188 189 267 296 301 313 324 130 97 106 145 84 83 278 280 328 317 295 259 281 339 358 66 47 193 39 126 254 241 267 266 283 302 284
259 255 241 217 206 198 192 186 177 175 183 189 181 195 184 255 301 306 347 69 27 336 48 215 128 274 300 298 298 273 295 122 107 79 127 331 72 235 218 217 241 252 255 276 279 283 287
253 247 244 225 202 192 186 177 168 164 180 183 177 176 209 8 299 319 113 103 177 183 327 244 236 279 251 166 304 275 124 357 49 257 140 23 240 242 244 231 238 250 262 262 282 272 282
248 238 232 225 200 187 176 171 162 162 171 166 171 192 152 280 328 39 85 132 162 118 86 293 208 205 197 152 257 298 124 74 253 273 199 204 241 195 247 256 237 257 252 268 256 294 277
246 229 221 216 192 180 169 167 157 158 154 168 174 178 166 342 97 176 121 238 131 112 77 243 246 233 165 227 271 252 165 124 304 242 237 242 263 233 237 240 197 260 202 258 276 284 286
243 223 209 188 178 170 163 161 154 154 153 158 160 167 85 207 144 150 172 163 134 59 307 23 165 116 340 73 277 342 91 98 219 228 121 260 250 260 274 262 198 266 253 260 260 259 298
226 208 200 177 166 162 158 156 147 150 152 155 159 116 118 84 3 161 125 111 70 60 232 124 68 355 14 356 346 324 6 4 266 276 217 248 233 250 240 274 216 285 285 279 251 256 269
208 194 178 163 160 160 154 147 143 149 153 155 138 125 149 177 174 165 108 80 71 149 140 92 53 10 340 316 337 36 309 346 23 355 355 315 246 237 199 326 220 159 316 328 335 353 247
190 173 160 155 151 151 147 142 141 141 144 131 134 143 206 201 161 120 80 73 180 118 141 99 66 15 59 8 359 322 315 15 51 211 292 308 322 209 136 176 235 189 161 190 299 298 321
171 156 148 146 144 143 137 138 133 134 138 139 129 100 150 217 154 78 87 87 183 155 139 120 84 59 354 9 77 352 337 353 265 157 249 301 267 240 191 179 159 263 179 229 279 282 256
66 100 116 124 130 127 127 129 130 129 138 138 113 137 152 147 135 86 88 144 131 115 109 85 114 126 126 283 31 2 308 246 297 324 341 275 278 246 209 324 232 218 183 60 220 273 288
70 70 82 100 112 117 121 128 129 136 148 150 99 95 227 142 93 67 143 172 119 77 123 110 155 140 192 238 192 336 293 298 196 291 319 254 233 283 317 204 247 158 217 225 173 245 301
119 126 127 127 123 123 131 134 137 148 148 137 118 100 228 108 92 88 150 162 108 135 88 101 110 148 180 179 212 242 233 232 280 318 311 290 284 277 271 276 230 240 232 194 150 275 93
113 117 121 127 130 130 137 138 147 154 160 141 92 101 208 153 124 142 206 106 108 120 140 123 147 162 115 185 72 206 240 246 277 318 284 340 317 294 330 9 277 292 271 259 144 67 24
122 126 129 129 127 129 136 146 152 164 185 89 113 109 20 55 257 128 118 120 114 95 110 115 129 85 78 11 249 258 282 283 327 261 294 94 100 56 23 318 295 269 305 305 103 74 103
134 131 128 118 120 130 138 141 149 157 169 90 34 157 169 178 251 104 100 123 118 122 94 116 29 167 165 1 340 231 251 295 317 322 326 85 248 267 75 32 20 46 36 69 74 43 66
133 129 122 127 133 131 129 131 144 148 134 84 122 128 51 92 113 102 53 155 122 124 126 254 145 258 182 201 185 238 212 241 260 318 310 70 295 294 327 83 39 41 32 47 72 75 87
141 141 135 135 132 130 131 142 134 144 170 94 91 358 110 6 93 100 190 154 162 120 47 129 174 208 230 234 234 228 215 230 259 304 297 317 335 324 342 332 336 31 18 40 55 44 44
148 150 144 143 141 136 144 131 112 164 155 118 158 122 89 90 101 140 138 109 125 113 144 172 145 207 257 320 279 199 190 219 233 255 211 304 290 259 190 264 44 277 22 69 64 46 70
155 152 150 152 146 148 134 109 111 146 147 95 123 111 107 95 107 80 106 108 87 40 74 232 232 218 317 330 10 23 7 122 179 223 63 206 277 137 116 54 115 47 20 347 6 55 32
156 159 157 152 141 148 141 130 167 140 85 80 61 15 90 120 194 110 100 90 111 75 343 282 339 337 26 55 53 74 86 316 335 331 21 33 8 179 87 102 148 60 325 317 302 69 37
162 163 161 147 148 146 141 143 177 101 90 94 49 2 86 100 292 112 111 125 113 110 161 317 344 357 19 35 66 70 132 315 40 7 340 349 4 17 20 98 95 345 315 275 280 77 67
162 171 156 147 148 144 151 154 148 126 85 74 106 348 108 93 86 71 100 121 95 100 129 258 47 342 30 60 94 209 99 61 90 84 347 40 325 24 339 70 90 349 352 57 97 54 99
163 168 157 147 150 149 148 152 134 126 106 88 74 336 19 82 141 60 3 80 115 173 133 44 163 143 183 83 13 95 54 22 75 113 18 46 54 79 16 87 51 10 57 60 70 89 37